AirNav   Phillips 66 Aviation Fuel
 
 779 users online  

W94 Camp Peary Landing Strip Airport
Williamsburg, Virginia, USA

GOING TO WILLIAMSBURG?


FAA INFORMATION EFFECTIVE 14 SEPTEMBER 2017

Location

FAA Identifier: W94
Lat/Long: 37-18-46.0594N / 076-38-17.5821W
37-18.767657N / 076-38.293035W
37.3127943 / -76.6382172
(estimated)
Elevation: 40.8 ft. / 12 m (estimated)
Variation: 11W (2010)
From city: 3 miles NE of WILLIAMSBURG, VA
Time zone: UTC -4 (UTC -5 during Standard Time)
Zip code: 23188

Airport Operations

Airport use: Private use, THIS FLD IS DOD RESTRICTED.
Activation date: 07/1958
Control tower: no
ARTCC: WASHINGTON CENTER
FSS: LEESBURG FLIGHT SERVICE STATION
NOTAMs facility: DCA (NOTAM-D service available)
Attendance: MON-FRI 0800-1630
Wind indicator: yes
Segmented circle: no

Airport Communications

NORFOLK APPROACH: 125.7
NORFOLK DEPARTURE: 125.7
WX AWOS-3 at JGG (6 nm SW): 120.625 (757-220-8810)
WX ASOS at PHF (13 nm SE): PHONE 757-874-3682
WX AWOS-3 at FYJ (14 nm NW): 132.825 (804-785-2307)
WX AWOS-3 at W75 (20 nm NE): 118.45 (804-758-8592)
  • APCH/DEP SVCS PRVDD BY ORF APCH ON 125.7/335.625.

Nearby radio navigation aids

VOR radial/distance  VOR name  Freq  Var
HCMr164/8.9HARCUM VORTAC108.8007W
HPWr098/22.8HOPEWELL VORTAC112.0006W
CCVr276/30.6CAPE CHARLES VORTAC112.2010W
ORFr327/32.8NORFOLK VORTAC116.9007W
RICr118/34.4RICHMOND VORTAC114.1009W

 
NDB name  Hdg/Dist  Freq  Var  ID
WAKEFIELD052/26.327411WAKQ .- -.- --.-

Airport Services

Airframe service: NONE
Powerplant service: NONE

Runway Information

Runway 5/23

Dimensions: 5018 x 151 ft. / 1529 x 46 m
FLD CLSD TO ALL CIV & MIL ACFT WO PRIOR APVL OF BASE COMDR.
Surface: asphalt
RUNWAY 5  RUNWAY 23
Latitude: 37-18.448248N37-19.087063N
Longitude: 076-38.621737W076-37.964333W
Elevation: 40.8 ft.31.3 ft.
Traffic pattern: leftleft
Visual slope indicator: 4-light PAPI on left4-light PAPI on left
Touchdown point: yes, no lightsyes, no lights

Airport Ownership and Management from official FAA records

Ownership: U.S. Army
Owner: US ARMY AERONAUTICAL SVCS AGENCY
FT BELVOIR, VA 22060
Manager: DAVID J CROMLEY
AFETA-CAMP PEARY
WILLIAMSBURG, VA 23185
Phone 804-229-2121
COLONEL INFANTRY.

Additional Remarks

CAUTION: FLD RSTD, PPR BY WRITTEN REQ TO BASE COMDR, ATTN: AIR OPS. EXC WHEN OPR UNDER PRIOR PERMS AUTH, PILOTS SHOULD MAINT AT LEAST 3000 FT ABV THE ARPT ELEV WITHIN 5 NM.

Instrument Procedures

NOTE: All procedures below are presented as PDF files. If you need a reader for these files, you should download the free Adobe Reader.

NOT FOR NAVIGATION. Please procure official charts for flight.
FAA instrument procedures published for use between 14 September 2017 at 0901Z and 12 October 2017 at 0900Z.

 
IAPs - Instrument Approach Procedures
RNAV (GPS) RWY 05   download (254KB)
RNAV (GPS) RWY 23   download (168KB)
VOR-A   download (147KB)
NOTE: Special Take-Off Minimums/Departure Procedures apply   download (140KB)

Other nearby airports with instrument procedures:

KJGG - Williamsburg-Jamestown Airport (6 nm SW)
KFAF - Felker Army Airfield (11 nm S)
KPHF - Newport News/Williamsburg International Airport (13 nm SE)
KFYJ - Middle Peninsula Regional Airport (14 nm NW)
KLFI - Langley Air Force Base (19 nm SE)
W75 - Hummel Field Airport (20 nm NE)
 
Loc | Ops | Rwys | IFR | FBO | Links
Com | Nav | Svcs | Stats | Notes


 
Area around W94 (Camp Peary Landing Strip Airport)
 
Road maps at: MapQuest Bing Google
 
Aerial photo
WARNING: Photo may not be current or correct
Aerial photo of W94 (Camp Peary Landing Strip Airport)
Photo by Glenn Woodell, of NASA Langley Research Center
Photo taken 10-Apr-2014
looking south.

Do you have a better or more recent aerial photo of Camp Peary Landing Strip Airport that you would like to share? If so, please send us your photo.

 
Sectional chart

 
Airport distance calculator
Flying to Camp Peary Landing Strip Airport? Find the distance to fly.

From to W94

Sunrise and sunset
Times for 21-Sep-2017
 Local
(UTC-4)
 Zulu
(UTC)
Morning civil twilight06:2810:28
Sunrise06:5410:54
Sunset19:0523:05
Evening civil twilight19:3123:31

Current date and time
Zulu (UTC)  22-Sep-2017 03:16:21
Local (UTC-4)  21-Sep-2017 23:16:21
 
METAR
KJGG 
6nm SW 
220255Z AUTO 00000KT 10SM CLR 22/21 A3006 RMK AO1
KFAF 
12nm S 
220258Z AUTO 12003KT 10SM CLR 21/19 A3002 RMK AO2 SLP169 T02140192 52012 $
KPHF 
13nm SE 
220254Z AUTO 00000KT 10SM CLR 21/19 A3005 RMK AO2 SLP175 T02110194 53013
KFYJ 
14nm NW 
220256Z AUTO 00000KT 10SM CLR 19/18 A3006 RMK AO1
KW75 
20nm NE 
220255Z AUTO 17003KT 10SM CLR 21/21 A3004 RMK AO1 T02070207
KLFI 
20nm SE 
220258Z AUTO 14004KT 10SM CLR 23/20 A3005 RMK AO2 SLP183 T02280201 52014 $
TAF
KFAF 
12nm S 
211800Z 2118/2224 34009KT 9999 FEW040 QNH2999INS BECMG 2123/2124 VRB06KT 9999 SCT030 BKN050 QNH3002INS BECMG 2212/2213 32006KT 9999 SCT020 QNH2999INS BECMG 2220/2221 29006KT 9999 SCT160 QNH2999INS TX33/2119Z TN21/2212Z LAST NO AMDS AFT 2203 NEXT 2210
KPHF 
13nm SE 
211720Z 2118/2218 05006KT P6SM SCT040 FM220000 VRB03KT P6SM SKC FM221300 34006KT P6SM SKC
KLFI 
20nm SE 
220100Z 2201/2307 VRB06KT 9999 SCT040 QNH2999INS BECMG 2209/2210 27009KT 9999 SCT030 BKN150 QNH2999INS BECMG 2222/2223 34009KT 9999 SCT160 QNH3000INS TX29/2219Z TN20/2210Z
NOTAMs
Click for the latest NOTAMs
NOTAMs are issued by the DoD/FAA and will open in a separate window not controlled by AirNav.

 

 
 

Would you like to see your business listed on this page?

 If your business provides an interesting product or service to pilots, flight crews, aircraft, or users of the Camp Peary Landing Strip Airport, you should consider listing it here.  To start the listing process, click on the button below
 
Add a business
 

Other Pages about Camp Peary Landing Strip Airport

Update a link
 
Copyright © AirNav, LLC. All rights reserved. Privacy Policy  Contact